SCP
0 0 0 0 0 0 0 0 0 0 0 0 0 0 0 0 0 0 0 0 0 0
0 0 0 0 0 0 0 0 0 0 0 0 0 0 0 0 0 0 0 0 0 0
0 0 0 0 0 0 0 0 0 0 0 0 0 0 0 0 0 0 0 0 0 0
0 0 0 0 0 0 0 0 0 0 0 0 0 0 0 0 0 0 0 0 0 0
0 0 0 0 0 0 0 0 0 0 0 0 0 0 0 0 0 0 0 0 0 0
0 0 0 0 0 0 0 0 0 0 0 0 0 0 0 0 0 0 0 0 0 0
0 0 0 0 0 0 0 0 0 0 0 0 0 0 0 0 0 0 0 0 0 0
0 0 0 0 0 0 0 0 0 0 0 0 0 0 0 0 0 0 0 0 0 0
0 0 0 0 0 0 0 0 0 0 0 0 0 0 0 0 0 0 0 0 0 0
0 0 0 0 0 0 0 0 0 0 0 0 0 0 0 0 0 0 0 0 0 0
0 0 0 0 0 0 0 0 0 0 0 0 0 0 0 0 0 0 0 0 0 0
0 -0 -0 -0 0 0 0 0 0 0 0 0 0 0 0 0 0 0 0 0 0 0
0 -0 -0 0 0 0 0 0 0 0 0 0 0 0 0 0 0 0 0 0 0 0
-0 -0 0 0 0 0 0 0 0 0 0 0 0 0 0 0 0 0 0 0 0 0
Wind_Speed_500mb
112 99 92 90 90 87 73 67 60 43 39 37 35 31 24 20 19 16 17 13 11 7
113 101 99 94 90 82 73 60 62 49 39 33 28 24 18 13 12 13 12 11 5 4
107 97 97 82 85 76 69 68 58 56 43 33 20 14 12 14 13 17 13 6 5 9
105 91 85 81 77 78 76 69 59 51 35 31 25 22 17 24 22 18 10 8 8 12
100 87 80 76 83 82 77 64 51 49 45 31 28 30 25 22 20 13 11 11 12 16
83 83 81 85 82 77 72 65 59 52 41 37 32 27 27 21 16 16 16 16 18 21
76 83 82 83 80 75 65 58 52 44 41 34 31 29 22 20 21 20 21 23 23 25
87 82 83 83 76 67 62 57 50 41 36 36 31 24 22 23 23 25 27 25 26 30
90 87 85 76 71 68 62 51 48 43 37 32 27 25 25 25 28 29 28 28 31 34
90 88 81 76 72 61 58 53 44 39 33 28 26 26 27 30 29 30 29 32 35 37
77 75 74 69 65 57 49 42 36 31 28 26 25 26 27 29 31 31 32 36 38 41
82 79 75 63 55 47 42 36 31 27 26 23 22 23 26 30 32 35 36 39 41 45
73 64 57 52 48 43 35 29 28 24 19 18 20 21 23 28 34 39 39 42 46 50
53 51 47 42 38 35 34 30 22 20 20 15 17 19 22 26 35 40 45 48 50 51
Wind_Direction_500mb
207 207 211 213 214 208 195 179 169 172 179 180 171 172 171 176 172 181 191 202 218 233
204 206 210 209 208 202 189 175 162 166 173 172 166 160 168 173 190 190 208 219 228 298
203 205 209 204 202 192 176 169 167 166 168 163 171 167 193 195 224 214 216 221 281 309
199 205 198 201 188 177 165 162 167 160 164 175 173 194 216 216 209 213 213 243 283 300
191 203 192 188 177 170 159 161 158 167 178 165 188 209 201 207 214 219 236 256 277 290
186 190 182 177 173 165 166 167 164 163 162 188 197 201 207 208 219 234 250 262 273 280
176 173 171 169 165 160 165 166 155 160 185 189 200 209 212 218 230 241 252 261 269 280
169 166 161 159 162 166 160 152 169 173 181 196 206 211 222 231 240 248 252 264 277 277
156 158 160 163 160 158 165 166 174 184 192 200 206 215 228 239 246 253 262 272 275 280
153 158 162 163 162 167 171 180 182 189 196 204 212 223 232 242 254 262 269 275 278 284
156 157 154 164 170 174 177 182 186 193 201 211 220 231 240 250 259 268 274 279 283 288
153 158 168 171 172 174 178 184 190 199 208 213 229 243 249 255 267 274 278 283 288 289
162 168 171 169 171 175 176 186 196 205 216 223 233 250 259 265 272 279 287 287 293 296
166 169 170 169 173 178 183 189 196 211 221 229 241 248 261 276 287 297 297 299 297 293
Wind_Speed_850mb
112 99 92 90 90 87 73 67 60 43 39 37 35 31 24 20 19 16 17 13 11 7
113 101 99 94 90 82 73 60 62 49 39 33 28 24 18 13 12 13 12 11 5 4
107 97 97 82 85 76 69 68 58 56 43 33 20 14 12 14 13 17 13 6 5 9
105 91 85 81 77 78 76 69 59 51 35 31 25 22 17 24 22 18 10 8 8 12
100 87 80 76 83 82 77 64 51 49 45 31 28 30 25 22 20 13 11 11 12 16
83 83 81 85 82 77 72 65 59 52 41 37 32 27 27 21 16 16 16 16 18 21
76 83 82 83 80 75 65 58 52 44 41 34 31 29 22 20 21 20 21 23 23 25
87 82 83 83 76 67 62 57 50 41 36 36 31 24 22 23 23 25 27 25 26 30
90 87 85 76 71 68 62 51 48 43 37 32 27 25 25 25 28 29 28 28 31 34
90 88 81 76 72 61 58 53 44 39 33 28 26 26 27 30 29 30 29 32 35 37
77 75 74 69 65 57 49 42 36 31 28 26 25 26 27 29 31 31 32 36 38 41
82 79 75 63 55 47 42 36 31 27 26 23 22 23 26 30 32 35 36 39 41 45
73 64 57 52 48 43 35 29 28 24 19 18 20 21 23 28 34 39 39 42 46 50
53 51 47 42 38 35 34 30 22 20 20 15 17 19 22 26 35 40 45 48 50 51
Wind_Direction_850mb
207 207 211 213 214 208 195 179 169 172 179 180 171 172 171 176 172 181 191 202 218 233
204 206 210 209 208 202 189 175 162 166 173 172 166 160 168 173 190 190 208 219 228 298
203 205 209 204 202 192 176 169 167 166 168 163 171 167 193 195 224 214 216 221 281 309
199 205 198 201 188 177 165 162 167 160 164 175 173 194 216 216 209 213 213 243 283 300
191 203 192 188 177 170 159 161 158 167 178 165 188 209 201 207 214 219 236 256 277 290
186 190 182 177 173 165 166 167 164 163 162 188 197 201 207 208 219 234 250 262 273 280
176 173 171 169 165 160 165 166 155 160 185 189 200 209 212 218 230 241 252 261 269 280
169 166 161 159 162 166 160 152 169 173 181 196 206 211 222 231 240 248 252 264 277 277
156 158 160 163 160 158 165 166 174 184 192 200 206 215 228 239 246 253 262 272 275 280
153 158 162 163 162 167 171 180 182 189 196 204 212 223 232 242 254 262 269 275 278 284
156 157 154 164 170 174 177 182 186 193 201 211 220 231 240 250 259 268 274 279 283 288
153 158 168 171 172 174 178 184 190 199 208 213 229 243 249 255 267 274 278 283 288 289
162 168 171 169 171 175 176 186 196 205 216 223 233 250 259 265 272 279 287 287 293 296
166 169 170 169 173 178 183 189 196 211 221 229 241 248 261 276 287 297 297 299 297 293